This demonstration page uses our WeatherBlox Daily Observations layout. Learn more.

Left ArrowRight Arrow

36.17497, -115.13722

Hourly Observations for July 27, 2021

Temp ( °F °C ) Dew Point ( °F °C ) Humidity (%) Winds ( mph kmh ) Pressure ( in mb ) Visibility ( mi km ) Precip ( " mm )
12:53 am 00:53 Clear 81 27.2 69 20.6 67 67 N N/A 29.97 1015 10 16 N/A
1:53 am 01:53 Clear 80 26.7 68 20 67 67 NNW 5 7 29.96 1015 10 16 N/A
2:53 am 02:53 Clear 80 26.7 67 19.4 64 64 WNW 5 7 29.96 1015 10 16 N/A
3:53 am 03:53 Clear 79 26.1 68 20 69 69 NW 5 7 29.97 1015 10 16 N/A
4:53 am 04:53 Clear 78 25.6 67 19.4 69 69 N N/A 29.97 1015 10 16 N/A
5:53 am 05:53 Sunny 79 26.1 66 18.9 65 65 W 5 7 29.98 1015 10 16 N/A
6:53 am 06:53 Sunny 80 26.7 67 19.4 64 64 WNW 3 6 30.00 1016 10 16 N/A
7:53 am 07:53 Sunny 83 28.3 66 18.9 57 57 N N/A 30.01 1016 10 16 N/A
8:53 am 08:53 Sunny 85 29.4 65 18.3 51 51 N N/A 30.02 1017 10 16 N/A
9:53 am 09:53 Sunny 87 30.6 64 17.8 46 46 N N/A 30.02 1017 10 16 N/A
10:53 am 10:53 Sunny 90 32.2 63 17.2 41 41 N N/A 30.02 1017 10 16 N/A
11:53 am 11:53 Sunny 94 34.4 61 16.1 33 33 S 8 13 30.01 1016 10 16 N/A
12:53 pm 12:53 Sunny 96 35.6 59 15 29 29 S 7 11 29.98 1015 10 16 N/A
1:53 pm 13:53 Sunny 97 36.1 56 13.3 25 25 VRB 3 6 29.96 1014 10 16 N/A
2:53 pm 14:53 Sunny 99 37.2 53 11.7 21 21 N N/A 29.93 1014 10 16 N/A
3:53 pm 15:53 Sunny 101 38.3 49 9.4 17 17 undefined N/A 29.91 1013 10 16 N/A
4:53 pm 16:53 Sunny 101 38.3 49 9.4 17 17 SSE 5 7 29.88 1012 10 16 N/A
5:53 pm 17:53 Sunny 100 37.8 49 9.4 18 18 S 5 7 29.87 1012 10 16 N/A
6:53 pm 18:53 Sunny 100 37.8 50 10 18 18 SE 6 9 29.87 1011 10 16 N/A
7:53 pm 19:53 Clear 99 37.2 49 9.4 18 18 S 7 11 29.88 1012 10 16 N/A
8:53 pm 20:53 Clear 98 36.7 50 10 20 20 SSW 7 11 29.90 1012 10 16 N/A
9:53 pm 21:53 Clear 95 35 51 10.6 23 23 SW 6 9 29.92 1013 10 16 N/A
10:53 pm 22:53 Clear 93 33.9 53 11.7 26 26 W 6 9 29.93 1013 10 16 N/A
11:53 pm 23:53 Clear 89 31.7 57 13.9 34 34 NW 5 7 29.93 1014 10 16 N/A

Powered by AerisWeather